Regional Weather Roundup
Issued by NWS

Home | Current Version | Previous Version | Graphics & Text | Print | Product List | Glossary On
Versions: 1 2 3 4 5 6 7 8 9 10 11 12 13 14 15 16 17 18 19 20 21 22 23 24 25 26 27 28 29 30 31 32 33 34 35 36 37 38 39 40 41 42 43 44 45 46 47 48 49 50
000
ASUS43 KIND 072159
RWRIN

WEATHER ROUNDUP FOR INDIANA
NATIONAL WEATHER SERVICE INDIANAPOLIS IN
600 PM EDT TUE JUL 07 2015

NOTE: "FAIR" INDICATES FEW OR NO CLOUDS BELOW 12,000 FEET WITH NO
SIGNIFICANT WEATHER AND/OR OBSTRUCTIONS TO VISIBILITY.

* - STATION DOES NOT REPORT WEATHER SUCH AS PRECIPITATION OR FOG.

+ - STATION NOT QUALITY CONTROLLED BY THE NATIONAL WEATHER SERVICE.
    USE DATA WITH CAUTION...ESPECIALLY DEWPOINT AND RELATIVE
    HUMIDITY OBSERVATIONS.

INZ001>003-010>013-019-020-072300-
NORTHWEST INDIANA

CITY           SKY/WX    TMP DP  RH WIND       PRES   REMARKS
GARY /AIRPORT/ MOSUNNY   64  50  59 N14G30    30.07R
RENSSELAER +   MOSUNNY   66  50  55 N13G23    30.03S

$$

LMZ046-743>745-072300-
SOUTHERN LAKE MICHIGAN

STATION/POSITION TIME  TEMP    WIND        PRES    WAVE
                       AIR SEA DIR/SP/G            HT
                 (UTC) (F)     (DEG/KT/KT) (MB)    (FT)
BURNS HARBOR     2100   62      30/ 20/ 23 1017.6R
MICHIGAN CITY    2100   61     350/ 24/ 27   N/A
5NW MICH CITY    2100   61 65   30/ 19/ 25   N/A     8

$$

INZ004-005-014>016-021>024-072300-
NORTH CENTRAL INDIANA

CITY           SKY/WX    TMP DP  RH WIND       PRES   REMARKS
ELKHART        SUNNY     66  50  55 NW7G17    30.00R
GOSHEN         SUNNY     68  55  63 NW10      29.98R
SOUTH BEND     SUNNY     66  50  56 N20G26    30.01S

$$

INZ006>009-017-018-025>027-072300-
NORTHEAST INDIANA

CITY           SKY/WX    TMP DP  RH WIND       PRES   REMARKS
ANGOLA *+      CLOUDY    70  63  78 N6        29.95S
FORT WAYNE     CLOUDY    70  62  76 N15       29.95S

$$

INZ028-029-035-036-043>045-051>053-072300-
WEST CENTRAL INDIANA

CITY           SKY/WX    TMP DP  RH WIND       PRES   REMARKS
CRAWFORDSVL +  CLOUDY    64  57  79 N7        30.00R
GREENCASTLE +  CLOUDY    64  59  82 N8        30.00R
LAFAYETTE      CLOUDY    68  54  60 N10       30.00R
TERRE HAUTE    LGT RAIN  66  63  90 N7        30.00R

$$

INZ030>032-037>040-046>048-054>057-064-065-072300-
CENTRAL INDIANA

CITY           SKY/WX    TMP DP  RH WIND       PRES   REMARKS
GREENWOOD *+   CLOUDY    68  64  88 NW9       29.97R
INDIANAPOLIS   LGT RAIN  66  62  87 NW17      29.97R
-EAGLE CREEK   CLOUDY    66  63  90 NW12      29.97R
KOKOMO *+      CLOUDY    70  59  68 N15       29.97R
MT COMFORT *+  CLOUDY    66 N/A N/A N13G18    29.96R
SHELBYVILLE    LGT RAIN  74  71  91 N6        29.91S FOG

$$

INZ033-034-041-042-049-050-058-059-072300-
EAST CENTRAL INDIANA

CITY           SKY/WX    TMP DP  RH WIND       PRES   REMARKS
MUNCIE         LGT RAIN  69  66  90 N10       29.95R

$$

INZ060-061-067>069-081>083-085>088-072300-
SOUTHWEST INDIANA

CITY           SKY/WX    TMP DP  RH WIND       PRES   REMARKS
EVANSVILLE     LGT RAIN  76  73  91 S7        29.97F
HUNTINGBURG *+ CLOUDY    73  70  88 SW7       29.98F

$$

INZ062-063-066-070>080-084-089>092-072300-
SOUTH CENTRAL AND SOUTHEAST INDIANA

CITY           SKY/WX    TMP DP  RH WIND       PRES   REMARKS
BLOOMINGTON    RAIN      73  71  93 VRB5      29.97R
MADISON *+     CLOUDY    73  70  88 SW10      30.00S
SEYMOUR +      LGT RAIN  75  73  94 SW13G20   29.96R

$$




USA.gov is the U.S. government's official web portal to all federal, state and local government web resources and services.